Regional Weather Roundup
Issued by NWS State College, PA

Home | Current Version | Previous Version | Text Only | Print | Product List | Glossary Off
Versions: 1 2 3 4 5 6 7 8 9 10 11 12 13 14 15 16 17 18 19 20 21 22 23 24 25 26 27 28 29 30 31 32 33 34 35 36 37 38 39 40 41 42 43 44 45 46 47 48 49 50

000
ASUS41 KCTP 291903
RWRCTP

REGIONAL WEATHER ROUNDUP
NATIONAL WEATHER SERVICE STATE COLLEGE PA
300 PM EDT SUN MAY 29 2016

Note: "fair" indicates few or no clouds below 12,000 feet with no
significant weather and/or obstructions to visibility.

* = STATION THAT DOES NOT REPORT PRECIPITATION /E.G. RAIN...SNOW...ETC/
    THUNDER OR FOG.

PAZ002>004-007>009-013>016-020>023-029>032-292000-
WESTERN PENNSYLVANIA

CITY           SKY/WX    TMP DP  RH WIND       PRES   REMARKS
ERIE           CLOUDY    78  65  63 W9        30.05F
MEADVILLE      CLOUDY    75  66  73 S6        30.10F
FRANKLIN*      CLOUDY    79  66  65 S10       30.13S
NEW CASTLE     FAIR      80  69  69 S5        30.10S
BEAVER COUNTY  NOT AVBL
BUTLER*        CLOUDY    73  63  68 S12G17    30.15R
PITTSBURGH INT CLOUDY    74  58  57 SE7       30.11S
PITTSBURGH     CLOUDY    68  61  78 SE5       30.11F
INDIANA*       SUNNY     79  70  73 NW9       30.14S
LATROBE        LGT RAIN  72  61  68 NW12G26   30.14R
WASHINGTON CO* CLOUDY    79  66  65 W9        30.11F
$$

PAZ004>006-010>012-017>019-024>028-033>037-041-042-045-046-049>053-292000-
CENTRAL PENNSYLVANIA

CITY           SKY/WX    TMP DP  RH WIND       PRES   REMARKS
BRADFORD       CLOUDY    79  62  56 SW7       30.12F
DUBOIS         CLOUDY    77  66  68 W5        30.11F
CLEARFIELD     CLOUDY    80  64  58 SW7       30.10F
JOHNSTOWN      LGT RAIN  68  54  60 W6        30.14F
ALTOONA        CLOUDY    80  58  46 S8        30.12F
STATE COLLEGE  SUNNY     82  59  44 S8        30.09F
WILLIAMSPORT   CLOUDY    88  59  37 SE13G20   30.04F
SELINSGROVE    CLOUDY    86  56  35 SW8G16    30.08F
FT INDIANTOWN  NOT AVBL
CAPITAL CITY   MOSUNNY   86  59  39 S8        30.07F
HARRISBURG     PTSUNNY   87  56  34 W6        30.07F
YORK           MOSUNNY   85  62  46 SE6       30.08F
$$

PAZ038>040-043-044-047-048-054-055-060>062-067>071-292000-
EASTERN PENNSYLVANIA

CITY           SKY/WX    TMP DP  RH WIND       PRES   REMARKS
SCRANTON       PTSUNNY   87  62  43 VRB5      30.07S
MOUNT POCONO   CLOUDY    80  60  50 SW14      30.14F
ALLENTOWN      MOSUNNY   89  60  37 S5        30.08F
QUAKERTOWN*    CLEAR     86  59  39 S6        30.11S
READING        SUNNY     88  57  34 S9        30.07F
LANCASTER      SUNNY     85  57  38 S8        30.08F
COATESVILLE    CLEAR     84  59  42 VRB5G15   30.12F
POTTSTOWN      SUNNY     86  59  39 S5        30.10F
BLUE BELL      SUNNY     82  61  47 SW3       30.09F
DOYLESTOWN     MOSUNNY   85  53  33 VRB7      30.08F
WILLOW GROVE   NOT AVBL
NORTH PHILA    SUNNY     88  55  32 SW13      30.09F
PHILADELPHIA   PTSUNNY   86  60  41 S13       30.09F
$$




USA.gov is the U.S. government's official web portal to all federal, state and local government web resources and services.